When you browse on this site, cookies collect data to enhance your experience and personalize the content and advertising you see.
Visit our Privacy Policy to learn more. By continuing to use the site, you agree to this use of cookies and data.
  • In Belgium
  • List of Countries
  • For 7 days
  • Water Temperature
  • Satellite Maps
  • Weather Map
  • Weather Widgets
  • user-avatar
    Login

    Hourly Weather Kalgoorlie

    Today, 23 May, Thursday

    Time Temperature Precipitation Wind Pressure Humidity
    00:00 +19°C° 0 mm 3 mps 732 mmHg 34%
    01:00 +18°C° 0 mm 3 mps 732 mmHg 39%
    02:00 +18°C° 0 mm 3 mps 732 mmHg 43%
    03:00 +17°C° 0 mm 3 mps 732 mmHg 49%
    04:00 +16°C° 0 mm 3 mps 732 mmHg 54%
    05:00 +16°C° 0 mm 3 mps 733 mmHg 59%
    06:00 +15°C° 0 mm 4 mps 733 mmHg 61%
    07:00 +15°C° 0 mm 4 mps 734 mmHg 62%
    08:00 +15°C° 0 mm 4 mps 734 mmHg 70%
    09:00 +18°C° 0 mm 4 mps 734 mmHg 62%
    10:00 +20°C° 0 mm 4 mps 734 mmHg 54%
    11:00 +22°C° 0 mm 4 mps 734 mmHg 46%
    12:00 +23°C° 0 mm 5 mps 734 mmHg 42%
    13:00 +25°C° 0 mm 5 mps 734 mmHg 38%
    14:00 +24°C° 0 mm 6 mps 734 mmHg 34%
    15:00 +23°C° 0 mm 5 mps 734 mmHg 35%
    16:00 +23°C° 0 mm 5 mps 734 mmHg 37%
    17:00 +22°C° 0 mm 4 mps 734 mmHg 38%
    18:00 +21°C° 0 mm 4 mps 734 mmHg 40%
    19:00 +20°C° 0 mm 4 mps 734 mmHg 42%
    20:00 +18°C° 0 mm 3 mps 734 mmHg 44%
    21:00 +18°C° 0 mm 3 mps 735 mmHg 45%
    22:00 +17°C° 0 mm 3 mps 735 mmHg 47%
    23:00 +16°C° 0 mm 2 mps 735 mmHg 49%

    Tomorrow, 24 May, Friday

    Time Temperature Precipitation Wind Pressure Humidity
    00:00 +16°C° 0 mm 2 mps 735 mmHg 51%
    01:00 +15°C° 0 mm 2 mps 734 mmHg 52%
    02:00 +15°C° 0 mm 2 mps 734 mmHg 53%
    03:00 +15°C° 0 mm 2 mps 734 mmHg 55%
    04:00 +14°C° 0 mm 2 mps 734 mmHg 56%
    05:00 +14°C° 0 mm 2 mps 734 mmHg 58%
    06:00 +14°C° 0 mm 2 mps 734 mmHg 56%
    07:00 +15°C° 0 mm 2 mps 735 mmHg 55%
    08:00 +15°C° 0 mm 2 mps 735 mmHg 54%
    09:00 +17°C° 0 mm 2 mps 735 mmHg 49%
    10:00 +19°C° 0 mm 1 mps 735 mmHg 45%
    11:00 +20°C° 0 mm 1 mps 735 mmHg 40%
    12:00 +21°C° 0 mm 1 mps 735 mmHg 36%
    13:00 +22°C° 0 mm 1 mps 734 mmHg 33%
    14:00 +23°C° 0 mm 1 mps 733 mmHg 30%
    15:00 +22°C° 0 mm 1 mps 733 mmHg 31%
    16:00 +22°C° 0 mm 1 mps 734 mmHg 32%
    17:00 +21°C° 0 mm 1 mps 734 mmHg 34%
    18:00 +19°C° 0 mm 2 mps 734 mmHg 35%
    19:00 +19°C° 0 mm 2 mps 734 mmHg 36%
    20:00 +18°C° 0 mm 3 mps 734 mmHg 38%
    21:00 +17°C° 0 mm 3 mps 735 mmHg 40%
    22:00 +17°C° 0 mm 3 mps 735 mmHg 42%
    23:00 +15°C° 0 mm 4 mps 735 mmHg 44%

    Day after tomorrow, 25 May, Saturday

    Time Temperature Precipitation Wind Pressure Humidity
    00:00 +14°C° 0 mm 4 mps 735 mmHg 49%
    01:00 +14°C° 0 mm 4 mps 735 mmHg 53%
    02:00 +13°C° 0 mm 4 mps 735 mmHg 57%
    03:00 +12°C° 0 mm 4 mps 735 mmHg 61%
    04:00 +12°C° 0 mm 3 mps 735 mmHg 64%
    05:00 +12°C° 0 mm 3 mps 735 mmHg 68%
    06:00 +12°C° 0 mm 3 mps 735 mmHg 69%
    07:00 +12°C° 0 mm 4 mps 735 mmHg 70%
    08:00 +13°C° 0 mm 4 mps 736 mmHg 70%
    09:00 +14°C° 0 mm 3 mps 736 mmHg 64%
    10:00 +16°C° 0 mm 3 mps 736 mmHg 58%
    11:00 +18°C° 0 mm 3 mps 736 mmHg 52%
    12:00 +18°C° 0 mm 3 mps 735 mmHg 49%
    13:00 +19°C° 0 mm 2 mps 735 mmHg 46%
    14:00 +19°C° 0 mm 2 mps 734 mmHg 43%
    15:00 +19°C° 0 mm 2 mps 734 mmHg 44%
    16:00 +19°C° 0 mm 2 mps 734 mmHg 45%
    17:00 +18°C° 0 mm 2 mps 734 mmHg 46%
    18:00 +17°C° 0 mm 3 mps 735 mmHg 48%
    19:00 +17°C° 0 mm 3 mps 735 mmHg 50%
    20:00 +16°C° 0 mm 3 mps 736 mmHg 52%
    21:00 +16°C° 0 mm 3 mps 736 mmHg 56%
    22:00 +14°C° 0 mm 4 mps 736 mmHg 61%
    23:00 +13°C° 0 mm 4 mps 736 mmHg 65%

    26 May, Sunday

    Time Temperature Precipitation Wind Pressure Humidity
    00:00 +13°C° 0 mm 4 mps 736 mmHg 70%
    01:00 +12°C° 0 mm 4 mps 736 mmHg 74%
    02:00 +12°C° 0 mm 4 mps 736 mmHg 78%
    03:00 +11°C° 0 mm 4 mps 736 mmHg 82%
    04:00 +11°C° 0 mm 4 mps 736 mmHg 86%
    05:00 +11°C° 0 mm 4 mps 736 mmHg 89%
    06:00 +11°C° 0 mm 4 mps 736 mmHg 88%
    07:00 +10°C° 0 mm 5 mps 736 mmHg 86%
    08:00 +10°C° 0 mm 5 mps 737 mmHg 85%
    09:00 +13°C° 0 mm 5 mps 737 mmHg 76%
    10:00 +15°C° 0 mm 5 mps 737 mmHg 67%
    11:00 +16°C° 0 mm 5 mps 737 mmHg 58%
    12:00 +17°C° 0 mm 5 mps 736 mmHg 54%
    13:00 +19°C° 0 mm 4 mps 736 mmHg 50%
    14:00 +19°C° 0 mm 4 mps 735 mmHg 47%
    15:00 +19°C° 0 mm 4 mps 735 mmHg 48%
    16:00 +18°C° 0 mm 4 mps 735 mmHg 49%
    17:00 +18°C° 0 mm 4 mps 735 mmHg 50%
    18:00 +17°C° 0 mm 4 mps 736 mmHg 53%
    19:00 +15°C° 0 mm 5 mps 736 mmHg 56%
    20:00 +14°C° 0 mm 5 mps 737 mmHg 59%
    21:00 +14°C° 0 mm 5 mps 737 mmHg 62%
    22:00 +13°C° 0 mm 5 mps 737 mmHg 64%
    23:00 +13°C° 0 mm 5 mps 737 mmHg 67%

    27 May, Monday

    Time Temperature Precipitation Wind Pressure Humidity
    00:00 +12°C° 0 mm 5 mps 737 mmHg 68%
    01:00 +12°C° 0 mm 5 mps 737 mmHg 69%
    02:00 +10°C° 0 mm 5 mps 736 mmHg 70%
    03:00 +11°C° 0 mm 4 mps 736 mmHg 72%
    04:00 +11°C° 0 mm 4 mps 736 mmHg 73%
    05:00 +10°C° 0 mm 4 mps 736 mmHg 74%
    06:00 +11°C° 0 mm 4 mps 737 mmHg 72%
    07:00 +10°C° 0 mm 5 mps 737 mmHg 70%
    08:00 +10°C° 0 mm 5 mps 738 mmHg 69%
    09:00 +13°C° 0 mm 5 mps 737 mmHg 62%
    10:00 +15°C° 0 mm 5 mps 737 mmHg 56%
    11:00 +16°C° 0 mm 5 mps 737 mmHg 50%
    12:00 +18°C° 0 mm 4 mps 737 mmHg 48%
    13:00 +19°C° 0 mm 3 mps 736 mmHg 46%
    14:00 +20°C° 0 mm 3 mps 735 mmHg 44%
    15:00 +19°C° 0 mm 2 mps 735 mmHg 45%
    16:00 +19°C° 0 mm 2 mps 736 mmHg 47%
    17:00 +18°C° 0 mm 2 mps 736 mmHg 48%
    18:00 +18°C° 0 mm 2 mps 736 mmHg 49%
    19:00 +17°C° 0 mm 3 mps 736 mmHg 51%
    20:00 +16°C° 0 mm 3 mps 737 mmHg 52%
    21:00 +16°C° 0 mm 3 mps 737 mmHg 53%
    22:00 +14°C° 0 mm 3 mps 736 mmHg 54%
    23:00 +14°C° 0 mm 3 mps 736 mmHg 54%

    28 May, Tuesday

    Time Temperature Precipitation Wind Pressure Humidity
    00:00 +13°C° 0 mm 3 mps 736 mmHg 56%
    01:00 +13°C° 0 mm 3 mps 736 mmHg 57%
    02:00 +12°C° 0 mm 3 mps 736 mmHg 58%
    03:00 +12°C° 0 mm 3 mps 736 mmHg 60%
    04:00 +11°C° 0 mm 3 mps 736 mmHg 62%
    05:00 +11°C° 0 mm 3 mps 736 mmHg 64%
    06:00 +11°C° 0 mm 3 mps 737 mmHg 63%
    07:00 +12°C° 0 mm 3 mps 737 mmHg 62%
    08:00 +12°C° 0 mm 3 mps 737 mmHg 61%
    09:00 +14°C° 0 mm 3 mps 737 mmHg 54%
    10:00 +15°C° 0 mm 4 mps 737 mmHg 48%
    11:00 +18°C° 0 mm 4 mps 737 mmHg 42%
    12:00 +19°C° 0 mm 4 mps 737 mmHg 38%
    13:00 +19°C° 0 mm 4 mps 736 mmHg 35%
    14:00 +20°C° 0 mm 4 mps 736 mmHg 32%
    15:00 +19°C° 0 mm 4 mps 736 mmHg 33%
    16:00 +19°C° 0 mm 4 mps 737 mmHg 34%
    17:00 +18°C° 0 mm 4 mps 737 mmHg 35%
    18:00 +17°C° 0 mm 4 mps 737 mmHg 38%
    19:00 +15°C° 0 mm 4 mps 738 mmHg 40%
    20:00 +14°C° 0 mm 4 mps 738 mmHg 43%
    21:00 +14°C° 0 mm 4 mps 738 mmHg 46%
    22:00 +13°C° 0 mm 4 mps 738 mmHg 48%
    23:00 +13°C° 0 mm 4 mps 738 mmHg 51%
    Show more